37P/Forbes (2011)

Japanese version
Home page
Updated on February 10, 2013

---------------------------------------------------------------------

* Profile

* Pictures

* Orbital Elements

Epoch 2011 Dec. 25.0 TT = JDT 2455920.5
T 2011 Dec. 11.02060 TT                                 MPC
q   1.5753132            (2000.0)            P               Q
n   0.15516892     Peri.  329.38785     +0.25339547     +0.96108623
a   3.4297797      Node   315.03097     -0.85302010     +0.16835644
e   0.5406955      Incl.    8.95585     -0.45623179     +0.21901908
P   6.35
From 745 observations 1993 Mar. 21-2012 Oct. 23, mean residual 0".9.
     Nongravitational parameters A1 = +0.67, A2 = -0.0333.

* Finding Charts

* Magnitudes Graph

        m1 =   9.0 + 5 log d +  20 log r  [   ,284]  (             - 2012 Sept.20)
        m1 = -32   + 5 log d + 100 log r  [284,345]  (2012 Sept.20 - 2012 Nov. 20)
        m1 =   9.0 + 5 log d +  20 log r  [345,   ]  (2012 Nov. 20 -             )

---------------------------------------------------------------------

The orbital elements are published on M.P.E.C. 2012-U109.
The charts are made with StellaNavigator Ver.8 (AstroArts).
The magnitudes graphs are made with Comet for Windows.

---------------------------------------------------------------------

Copyright(C) Seiichi Yoshida (comet@aerith.net). All rights reserved.